Wind_Speed
11 11 11 11 10 11 11 11 10 9 9 10 9 9 9 9 9 7 9 11 12 11 9 7 7 5 4 4 5 5 6 5 3 2 1 3 3 2 0 3 2 2 5 6 3 4 5
11 10 10 10 10 10 10 10 11 10 9 9 8 7 7 7 7 6 6 8 11 11 9 7 6 5 4 4 6 6 7 6 4 3 4 1 1 2 4 6 4 5 6 3 4 6 5
11 11 10 10 10 10 10 10 11 11 10 9 8 7 6 7 4 4 3 6 9 10 8 7 5 4 3 5 7 7 8 7 8 5 4 0 3 5 4 7 8 8 4 1 1 1 3
12 12 11 11 11 10 11 11 12 12 12 10 8 7 6 5 4 4 4 4 7 8 8 7 6 4 2 3 5 6 7 7 7 5 3 1 4 5 5 7 8 9 7 4 1 4 5
13 13 13 12 12 11 11 12 12 12 12 11 9 7 6 4 4 4 6 6 8 9 8 8 7 5 3 4 4 5 6 8 6 4 3 3 4 4 4 7 7 7 7 5 3 5 8
14 14 14 13 13 14 13 13 13 13 12 12 10 7 6 4 5 5 7 8 8 8 8 7 8 7 5 5 5 6 6 6 6 5 4 1 2 2 5 6 5 5 4 8 5 7 9
15 15 15 15 15 16 16 15 14 14 13 12 11 8 6 4 7 8 7 8 8 8 7 6 5 7 7 6 6 7 6 5 5 5 4 3 2 4 4 4 2 4 7 3 8 10 8
16 15 16 17 16 16 17 17 15 15 13 12 11 9 7 5 7 11 9 9 9 9 9 7 5 5 6 7 7 7 7 5 4 5 3 4 3 2 2 5 4 5 5 6 5 6 4
15 16 16 16 17 16 17 17 16 14 12 12 11 9 8 6 7 13 13 11 10 10 9 9 7 7 6 7 8 7 7 6 6 5 4 6 7 7 4 3 3 4 4 6 2 2 6
16 16 16 16 16 16 16 15 15 14 13 11 11 10 10 7 7 14 15 11 10 9 10 9 9 7 8 8 9 9 7 6 7 6 7 6 6 6 4 4 5 7 3 5 9 10 10
17 17 17 18 18 17 16 14 15 15 13 13 12 11 11 9 9 12 16 15 13 11 11 11 10 10 9 9 7 8 7 8 9 9 8 7 8 7 5 2 2 7 3 9 6 14 16
18 19 19 20 21 20 20 18 16 16 15 13 13 11 11 11 10 12 17 18 15 14 13 12 12 11 10 10 8 8 7 7 8 8 8 10 9 8 7 4 2 3 2 7 7 6 3
23 24 24 24 24 24 23 23 22 19 17 15 14 12 11 13 11 13 17 19 18 19 15 15 14 12 11 10 8 7 7 7 7 10 12 11 10 7 5 1 1 2 1 3 6 5 5
27 27 27 27 26 26 26 25 22 21 19 19 16 14 14 14 13 15 18 20 21 20 15 15 14 13 12 10 9 9 9 9 10 12 11 11 12 8 6 3 2 1 1 5 5 2 1
29 28 27 25 24 24 24 23 19 20 19 18 15 14 15 15 15 18 20 23 24 22 19 16 13 13 12 11 11 9 8 8 9 9 12 13 11 11 7 6 6 3 4 1 2 3 5
28 24 24 22 22 21 20 18 15 16 15 15 13 14 17 16 18 20 22 24 24 23 20 18 15 13 13 13 10 11 7 7 7 9 11 12 13 12 9 9 10 7 4 6 7 7 7
26 24 22 20 19 17 15 14 12 12 12 11 9 13 17 17 19 22 23 22 23 23 22 20 17 13 13 15 13 14 11 10 7 8 10 10 9 15 15 11 11 8 9 11 12 13 15
24 22 20 19 17 16 12 14 10 11 10 7 7 10 16 17 20 22 25 23 21 22 20 20 18 13 8 12 14 16 18 17 15 15 14 15 12 15 17 13 15 16 17 17 16 17 18
26 23 20 18 17 14 11 12 9 10 10 8 9 11 14 17 22 23 25 23 21 19 20 20 20 19 17 14 14 15 17 18 20 18 18 18 16 17 18 20 21 20 20 21 21 21 21
26 23 20 17 16 14 11 11 11 10 11 10 10 13 16 17 19 20 23 22 21 21 22 21 20 20 18 17 19 18 18 19 20 19 17 17 15 15 16 18 20 21 22 24 26 28 30
26 21 19 16 14 13 11 10 12 11 12 12 11 13 15 17 19 21 21 22 22 23 23 23 22 23 23 24 26 24 23 22 21 21 20 20 18 18 20 22 24 24 24 26 27 29 31
24 21 17 14 14 12 11 11 12 12 13 12 11 13 13 18 19 21 21 21 23 24 24 24 22 22 22 24 27 24 21 20 19 18 19 21 21 21 23 24 25 27 27 29 30 32 34
22 20 17 15 13 12 11 13 12 13 15 14 12 13 12 15 18 18 22 23 24 24 24 23 23 22 23 25 25 23 21 20 20 21 21 22 24 24 26 27 29 30 29 32 34 36 37
24 21 18 17 15 12 12 13 14 14 16 16 13 13 13 11 17 19 20 24 25 24 21 21 20 20 20 22 24 24 22 22 21 21 23 24 26 27 28 28 31 31 32 33 34 35 37
23 21 17 15 14 14 13 12 13 14 16 17 15 13 14 13 15 20 21 21 23 23 23 20 18 19 20 22 24 23 23 22 22 23 22 23 25 27 29 29 31 31 32 33 35 36 38
21 21 17 15 13 11 12 11 12 12 15 17 16 15 14 14 16 17 20 22 22 22 22 20 20 21 21 22 22 22 22 22 21 20 21 23 25 26 26 27 30 30 33 35 38 41 40
19 19 18 15 13 13 11 10 11 11 14 16 16 16 16 15 16 17 18 20 21 21 21 21 21 22 20 20 20 21 21 22 22 22 22 24 24 24 25 28 31 34 37 39 42 42 41
19 18 18 17 15 13 13 11 11 12 14 15 15 17 17 18 19 18 18 19 19 19 20 20 21 21 21 21 21 21 22 22 23 22 23 24 25 25 27 29 33 35 37 39 38 38 39
21 19 18 18 16 14 14 13 12 13 14 14 14 15 17 18 19 21 19 19 20 22 22 22 21 21 20 21 21 21 22 22 22 22 23 24 25 26 27 29 32 33 34 35 36 37 36
Wind_Direction
311 314 315 319 325 327 329 327 325 324 325 318 312 300 286 284 279 259 261 245 233 235 239 245 244 235 243 253 236 229 239 239 231 272 24 80 82 88 37 146 136 257 266 271 298 318 320
308 311 311 314 318 322 324 324 323 326 333 333 328 318 299 288 275 257 260 238 224 225 231 234 217 228 246 229 224 214 216 203 204 205 109 73 1 256 224 167 206 243 228 245 303 325 330
303 305 306 309 310 313 313 313 314 316 321 327 330 321 313 305 251 245 241 216 211 215 207 192 199 223 251 209 203 200 200 188 183 168 136 166 272 266 241 181 203 213 211 258 16 244 280
302 303 302 303 304 306 305 304 307 309 312 314 322 319 317 305 238 230 207 188 182 180 177 181 188 215 218 193 205 195 179 165 167 153 160 224 276 270 218 192 203 206 212 193 246 278 301
301 299 298 298 299 302 303 303 303 306 308 307 313 314 311 297 235 220 202 188 181 183 185 187 196 203 180 182 183 182 168 162 161 159 171 220 260 252 235 194 184 194 197 198 252 291 293
302 300 297 298 299 301 302 303 303 303 304 303 304 305 301 301 220 210 204 198 198 197 197 201 207 201 199 197 180 158 166 166 166 168 177 191 266 229 222 197 190 193 194 214 278 291 287
307 303 299 299 300 301 303 305 307 302 301 299 297 294 294 283 212 202 191 192 195 194 190 203 219 203 183 182 192 169 163 167 168 178 182 149 177 221 228 229 221 144 154 191 245 276 294
308 305 303 303 303 303 303 304 305 303 297 296 294 291 287 280 219 208 200 195 193 196 200 208 212 216 202 191 178 195 181 178 172 183 171 120 109 118 327 310 297 213 232 297 284 275 353
306 305 303 300 300 301 302 301 303 305 302 297 290 284 280 275 235 207 200 190 194 201 207 210 209 215 197 175 169 191 192 181 176 185 142 110 97 87 64 24 359 318 332 264 238 138 104
306 304 300 297 298 302 303 301 297 302 301 302 300 281 270 270 244 214 205 199 198 199 207 203 192 183 179 170 159 166 176 176 176 170 155 147 121 115 100 39 2 324 19 177 124 114 118
306 305 300 299 299 301 303 306 298 296 296 298 301 286 265 261 252 226 206 201 199 191 193 188 183 181 166 166 164 158 162 171 180 180 170 143 141 128 110 49 333 274 182 182 122 102 94
308 304 301 299 298 299 299 302 298 289 289 294 295 283 266 256 250 225 211 202 202 191 181 184 185 179 170 171 159 155 144 163 174 178 172 146 134 128 109 93 341 280 227 193 190 179 111
306 303 300 297 297 296 296 294 294 287 284 284 286 273 260 250 242 222 212 205 202 195 187 191 188 187 190 169 169 162 153 169 177 168 163 149 148 147 140 96 343 309 212 155 177 222 286
306 305 304 300 297 295 291 288 287 283 279 279 273 266 246 243 233 218 207 205 203 198 195 198 195 189 185 179 170 163 163 165 165 165 165 165 164 183 190 238 180 209 137 182 213 249 239
307 307 307 303 297 293 288 287 279 276 276 271 263 253 232 233 224 214 205 207 205 204 206 203 203 196 195 185 186 192 198 187 191 194 188 181 198 207 221 221 214 206 177 329 281 356 340
309 304 304 303 299 293 288 285 275 277 271 266 255 238 221 223 218 213 212 211 208 204 207 212 211 214 207 198 203 208 220 220 225 209 219 216 213 230 237 243 251 263 259 294 296 299 317
313 310 303 302 300 298 288 284 277 274 273 267 255 223 211 215 214 215 220 214 213 210 214 219 225 221 213 201 211 214 221 224 232 237 250 250 247 234 253 253 252 262 276 294 289 296 301
315 311 309 304 299 297 281 281 275 274 263 256 231 205 202 210 211 217 220 217 215 213 208 212 211 216 220 225 224 226 231 230 231 227 227 231 227 219 226 249 253 259 269 277 273 276 276
318 314 308 303 298 293 272 267 269 270 246 243 218 211 210 212 210 216 225 223 221 220 217 212 214 220 226 236 247 246 250 240 235 237 233 231 231 222 235 246 255 263 265 269 276 280 283
325 315 306 299 293 292 269 257 261 261 243 243 232 221 219 218 214 215 225 229 229 229 229 231 234 237 245 256 263 266 263 255 254 251 247 240 238 248 261 268 274 279 285 289 290 290 289
328 324 312 296 295 293 265 251 254 252 246 241 239 227 227 219 217 214 216 227 232 234 236 238 243 248 254 259 261 259 261 260 260 261 263 266 270 274 280 283 285 288 287 287 286 286 285
328 325 319 306 299 295 263 257 249 250 244 242 238 233 228 220 220 219 215 218 231 239 240 245 250 253 252 252 252 255 259 262 260 258 261 266 271 273 275 277 279 281 281 282 281 280 279
325 326 316 305 304 299 275 270 252 248 240 240 238 232 236 225 221 221 218 218 218 229 239 243 246 246 245 249 255 256 259 263 264 267 267 268 271 273 275 278 281 281 287 285 286 287 288
336 328 316 304 301 295 289 273 266 253 237 238 234 230 236 231 222 219 220 223 226 230 230 232 236 242 246 248 253 257 261 264 266 266 268 271 274 275 275 277 279 286 285 286 287 290 291
341 336 324 313 301 298 288 277 270 264 232 234 233 231 230 229 228 225 227 227 230 230 232 237 241 245 250 252 252 254 256 257 258 262 265 268 271 274 276 279 284 286 287 289 291 291 289
337 344 335 324 314 300 294 280 268 259 232 234 238 233 232 230 230 231 232 234 235 237 241 243 244 244 244 247 251 254 259 263 263 265 271 274 276 277 280 282 287 292 293 296 294 293 294
333 338 341 337 328 315 296 282 267 257 245 243 242 239 237 236 234 233 234 237 239 240 241 240 241 247 247 250 258 265 264 265 270 273 276 278 279 283 288 292 295 297 300 299 298 300 301
325 326 334 335 334 322 303 286 262 252 252 251 248 246 246 240 238 237 237 240 242 240 238 236 237 242 252 257 259 260 263 268 273 277 282 284 289 293 295 298 297 300 298 298 299 299 298
339 326 321 326 329 324 311 286 270 250 251 251 253 252 251 249 243 241 243 245 245 245 245 246 248 251 251 251 252 258 265 267 271 278 282 286 290 293 295 294 297 297 298 299 300 297 295
Height
5892 5891 5889 5888 5887 5886 5884 5883 5882 5880 5879 5877 5876 5875 5875 5875 5875 5875 5875 5876 5877 5879 5881 5882 5883 5883 5885 5886 5887 5887 5888 5888 5890 5891 5892 5892 5892 5893 5892 5892 5894 5896 5896 5896 5896 5895 5893
5891 5889 5888 5887 5886 5885 5883 5882 5881 5879 5878 5876 5875 5874 5873 5872 5872 5873 5873 5874 5875 5877 5879 5880 5881 5882 5884 5885 5885 5886 5887 5888 5888 5889 5890 5891 5891 5892 5891 5891 5894 5895 5895 5896 5895 5894 5892
5889 5888 5887 5886 5885 5884 5882 5881 5879 5878 5877 5876 5874 5873 5872 5871 5871 5871 5872 5872 5873 5875 5877 5879 5880 5881 5882 5884 5883 5884 5885 5887 5888 5889 5890 5891 5890 5890 5890 5890 5892 5893 5895 5896 5895 5894 5892
5887 5885 5885 5884 5883 5882 5881 5880 5878 5877 5875 5875 5873 5872 5871 5870 5870 5870 5871 5871 5872 5874 5876 5878 5879 5880 5881 5882 5882 5884 5885 5886 5888 5889 5889 5890 5889 5889 5889 5890 5892 5893 5895 5895 5895 5893 5892
5885 5883 5882 5882 5881 5880 5879 5878 5876 5875 5874 5873 5872 5871 5870 5869 5869 5869 5870 5871 5872 5873 5875 5876 5878 5879 5880 5881 5882 5883 5885 5886 5888 5889 5889 5889 5889 5889 5889 5890 5892 5893 5894 5895 5895 5893 5892
5882 5881 5880 5879 5878 5877 5876 5875 5874 5873 5872 5871 5870 5869 5869 5868 5868 5868 5869 5870 5872 5873 5874 5875 5876 5879 5879 5880 5881 5883 5884 5885 5887 5888 5888 5888 5888 5889 5889 5890 5892 5892 5894 5895 5894 5893 5891
5880 5879 5878 5877 5876 5875 5874 5873 5872 5870 5869 5869 5868 5868 5867 5867 5867 5868 5869 5870 5872 5874 5874 5875 5876 5877 5877 5878 5880 5882 5883 5884 5885 5887 5887 5887 5888 5888 5889 5890 5891 5893 5894 5894 5893 5893 5893
5878 5877 5875 5874 5873 5872 5871 5869 5869 5867 5866 5866 5866 5866 5866 5865 5865 5866 5867 5868 5870 5872 5873 5873 5874 5875 5876 5877 5878 5880 5882 5884 5884 5885 5886 5887 5887 5888 5889 5890 5892 5893 5894 5894 5894 5894 5894
5875 5873 5872 5871 5870 5869 5868 5866 5865 5864 5863 5863 5863 5863 5863 5863 5863 5864 5865 5867 5868 5869 5871 5872 5873 5874 5875 5876 5877 5878 5880 5882 5883 5884 5885 5886 5887 5887 5888 5890 5892 5892 5893 5893 5895 5895 5895
5872 5870 5868 5867 5865 5864 5864 5863 5862 5861 5860 5860 5860 5860 5860 5861 5862 5861 5863 5865 5866 5868 5869 5872 5872 5873 5874 5874 5876 5877 5879 5881 5882 5883 5884 5885 5886 5887 5889 5889 5890 5890 5892 5894 5896 5896 5895
5869 5867 5865 5863 5861 5860 5859 5859 5858 5857 5857 5857 5857 5857 5857 5858 5858 5859 5862 5863 5864 5866 5868 5871 5871 5871 5872 5875 5876 5876 5878 5879 5881 5882 5885 5886 5886 5887 5888 5889 5889 5891 5891 5894 5896 5896 5896
5865 5863 5861 5859 5857 5855 5854 5854 5854 5853 5852 5852 5853 5853 5854 5854 5855 5856 5858 5861 5863 5866 5866 5868 5869 5870 5872 5873 5875 5876 5877 5879 5881 5882 5883 5884 5886 5888 5888 5889 5889 5889 5891 5892 5895 5895 5896
5862 5859 5856 5854 5852 5850 5849 5849 5848 5847 5847 5848 5848 5849 5850 5850 5851 5852 5855 5858 5861 5862 5865 5866 5867 5869 5871 5872 5873 5875 5877 5878 5880 5881 5883 5884 5886 5887 5888 5889 5889 5889 5890 5892 5893 5893 5893
5856 5853 5850 5848 5846 5844 5842 5842 5842 5841 5841 5842 5843 5844 5845 5846 5847 5849 5852 5856 5858 5860 5863 5864 5866 5868 5869 5871 5872 5873 5875 5877 5880 5881 5883 5884 5886 5886 5887 5889 5889 5889 5889 5891 5891 5892 5892
5850 5847 5844 5842 5839 5838 5836 5835 5835 5834 5834 5835 5837 5838 5840 5841 5843 5846 5849 5851 5854 5858 5860 5863 5865 5867 5868 5869 5872 5873 5875 5876 5878 5880 5882 5883 5885 5885 5887 5888 5889 5889 5889 5890 5890 5891 5891
5844 5841 5838 5835 5833 5831 5829 5829 5829 5828 5828 5829 5831 5832 5834 5837 5839 5842 5845 5847 5852 5856 5860 5862 5864 5866 5867 5869 5872 5873 5875 5876 5878 5879 5880 5883 5884 5885 5886 5887 5887 5888 5889 5889 5889 5889 5889
5838 5835 5832 5829 5827 5826 5824 5823 5824 5823 5824 5825 5826 5827 5831 5833 5836 5839 5841 5846 5849 5853 5858 5861 5864 5866 5867 5869 5870 5872 5874 5876 5877 5879 5880 5881 5883 5885 5884 5884 5885 5886 5886 5887 5886 5886 5885
5832 5829 5826 5824 5822 5821 5820 5819 5820 5819 5820 5822 5822 5824 5827 5830 5834 5835 5837 5842 5847 5850 5854 5858 5861 5864 5866 5867 5869 5870 5871 5873 5874 5876 5877 5878 5880 5881 5880 5881 5881 5882 5882 5883 5882 5882 5881
5827 5823 5821 5819 5817 5816 5816 5816 5816 5816 5817 5818 5820 5822 5824 5826 5829 5831 5835 5840 5845 5848 5852 5855 5858 5860 5862 5863 5865 5866 5867 5869 5870 5871 5873 5874 5876 5878 5877 5878 5877 5876 5877 5876 5876 5875 5875
5821 5818 5816 5814 5812 5811 5811 5812 5812 5813 5813 5815 5817 5819 5821 5823 5826 5829 5832 5837 5841 5844 5847 5850 5853 5856 5858 5859 5860 5861 5861 5862 5864 5865 5867 5868 5870 5871 5872 5871 5871 5870 5870 5869 5869 5867 5867
5817 5813 5810 5809 5808 5807 5807 5807 5808 5809 5810 5812 5813 5815 5817 5820 5822 5825 5829 5833 5836 5839 5842 5845 5848 5850 5852 5853 5853 5854 5855 5856 5858 5860 5861 5861 5862 5863 5863 5863 5862 5862 5862 5861 5861 5860 5859
5813 5809 5806 5805 5804 5803 5803 5803 5804 5805 5806 5808 5810 5811 5813 5816 5818 5821 5824 5827 5830 5833 5837 5839 5842 5844 5845 5846 5846 5847 5849 5851 5852 5855 5856 5856 5857 5857 5856 5856 5855 5855 5855 5854 5853 5852 5851
5809 5806 5803 5801 5800 5800 5800 5799 5800 5801 5802 5804 5806 5807 5809 5811 5814 5817 5819 5822 5824 5827 5830 5833 5836 5838 5839 5840 5840 5842 5844 5846 5847 5848 5849 5850 5850 5850 5849 5848 5848 5847 5847 5845 5843 5842 5841
5806 5802 5799 5797 5797 5796 5796 5795 5795 5796 5798 5800 5802 5804 5805 5807 5809 5812 5815 5817 5819 5821 5825 5827 5830 5832 5834 5835 5835 5837 5838 5840 5841 5842 5842 5842 5842 5842 5841 5842 5840 5840 5838 5837 5835 5834 5832
5803 5799 5796 5794 5793 5793 5792 5791 5791 5791 5793 5795 5798 5800 5801 5803 5804 5807 5809 5812 5814 5817 5819 5822 5825 5826 5827 5829 5830 5832 5833 5834 5835 5836 5836 5836 5835 5835 5834 5834 5833 5831 5829 5828 5826 5824 5821
5801 5798 5794 5792 5790 5789 5789 5788 5788 5788 5789 5791 5793 5796 5797 5799 5801 5802 5804 5807 5809 5812 5815 5817 5819 5821 5822 5823 5824 5825 5827 5827 5828 5829 5829 5829 5828 5829 5827 5826 5824 5822 5820 5817 5814 5812 5808
5799 5796 5793 5790 5788 5786 5785 5785 5785 5785 5786 5788 5789 5791 5793 5795 5796 5798 5800 5802 5805 5807 5809 5811 5813 5814 5817 5818 5819 5819 5820 5821 5821 5822 5822 5821 5821 5820 5819 5817 5814 5811 5808 5805 5802 5801 5795
5795 5793 5790 5788 5786 5784 5782 5782 5782 5782 5783 5784 5785 5786 5788 5790 5792 5793 5795 5798 5800 5802 5803 5806 5808 5810 5811 5812 5813 5813 5814 5814 5814 5814 5814 5814 5813 5812 5809 5807 5804 5801 5798 5795 5792 5787 5783
5792 5790 5787 5785 5783 5781 5779 5778 5778 5778 5779 5779 5780 5782 5783 5784 5786 5788 5790 5792 5794 5796 5798 5799 5802 5803 5805 5806 5807 5807 5808 5808 5808 5808 5807 5807 5806 5804 5802 5799 5795 5792 5788 5784 5781 5777 5772